Regional Weather Roundup
Issued by NWS

Home | Current Version | Previous Version | Graphics & Text | Print | Product List | Glossary On
Versions: 1 2 3 4 5 6 7 8 9 10 11 12 13 14 15 16 17 18 19 20 21 22 23 24 25 26 27 28 29 30 31 32 33 34 35 36 37 38 39 40 41 42 43 44 45 46 47 48 49 50
921
ASUS44 KMEG 102100
RWRTN
TENNESSEE HOURLY STATE WEATHER ROUNDUP
NATIONAL WEATHER SERVICE MEMPHIS TN
300 PM CST WED FEB 10 2016

TNZ002-004-019-021-049-052-054-088>092-102200-
WEST TENNESSEE

CITY           SKY/WX    TMP DP  RH WIND       PRES   REMARKS
MEMPHIS INTL   MOSUNNY   42  13  30 SW10      30.16F
NWS MEMPHIS      N/A     39 N/A N/A MISG        N/A
JACKSON        CLOUDY    31   8  38 SW5       30.17F WCI  26
DYERSBURG      CLOUDY    34   9  35 SW7       30.20F WCI  28
UNION CITY     CLOUDY    27  10  50 SW6       30.15F WCI  20
PARIS          CLOUDY    25  10  54 SW5       30.16S WCI  19
$$

TNZ008-025-027-028-033-062-065-066-102200-
NORTH MIDDLE TENNESSEE

CITY           SKY/WX    TMP DP  RH WIND       PRES   REMARKS
NASHVILLE      CLOUDY    30   8  39 W9        30.16S WCI  22
CLARKSVILLE    CLOUDY    27   9  46 W12       30.15S WCI  17
COOKEVILLE     SUNNY     28  10  47 W8        30.09S WCI  20
CROSSVILLE     CLOUDY    22   8  55 W16       30.04S WCI   8
$$

TNZ061-075-076-078-094-096-097-102200-
SOUTH MIDDLE TENNESSEE

CITY           SKY/WX    TMP DP  RH WIND       PRES   REMARKS
TULLAHOMA      SUNNY     28   9  43 W6        30.11F WCI  22
WINCHESTER     MOSUNNY   30   9  40 W9        30.12F WCI  22
MCMINNVILLE    MOSUNNY   27  12  54 W13       30.11S WCI  16
COLUMBIA       SUNNY     30  10  43 W7        30.15R WCI  23
SHELBYVILLE    PTSUNNY   32  12  43 W10       30.15S WCI  24
$$

TNZ017-018-042-046-047-102200-
NORTHEAST TENNESSEE

CITY           SKY/WX    TMP DP  RH WIND       PRES   REMARKS
TRI CITIES     CLOUDY    23   8  52 W14G21    29.98R WCI  11
$$

TNZ012-013-036-069-073-074-102200-
CENTRAL EAST TENNESSEE

CITY           SKY/WX    TMP DP  RH WIND       PRES   REMARKS
KNOXVILLE      MOSUNNY   30   6  36 SW20G25   30.07S WCI  17
OAK RIDGE      SUNNY     31   0  26 VRB6      30.08S WCI  25
GATLINBURG     CLEAR     28   3  34 W10       30.05R WCI  19
$$

TNZ083-085-099-102200-
SOUTHEAST TENNESSEE

CITY           SKY/WX    TMP DP  RH WIND       PRES   REMARKS
CHATTANOOGA    PTSUNNY   35   8  32 NW13      30.12F WCI  26
$$

SKY/WX REPORTED AS FAIR MEANS FEW OR NO CLOUDS BELOW
12 THOUSAND FEET.





USA.gov is the U.S. government's official web portal to all federal, state and local government web resources and services.